Change the Weather History Date:

Friday, September 14, 2012

  Actual Average Record
Temperature  
Mean Temperature 58 °F 70 °F  
Max Temperature 61 °F 81 °F 102 °F (1893)
Min Temperature 54 °F 58 °F 43 °F (1974)
Degree Days  
Heating Degree Days 7 1  
Month to date heating degree days 10 6  
Since 1 July heating degree days 10 8  
Cooling Degree Days 0 6  
Month to date cooling degree days 123 110  
Year to date cooling degree days 1713 1296  
Growing Degree Days 8 (Base 50)    
Moisture  
Dew Point 54 °F    
Average Humidity 87    
Maximum Humidity 93    
Minimum Humidity 80    
Precipitation  
Precipitation 0.07 in 0.15 in 3.84 in (1962)
Month to date precipitation 1.57 2.16  
Year to date precipitation 20.98 32.27  
Snow  
Snow 0.00 in - - ()
Month to date snowfall 0.0  
Since 1 July snowfall 0.0  
Since 1 September snowfall 0.0  
Snow Depth 0.00 in    
Sea Level Pressure  
Sea Level Pressure 30.27 in    
Wind  
Wind Speed 11 mph (NE)    
Max Wind Speed 17 mph    
Max Gust Speed 32 mph    
Visibility 10 miles    
Events Rain    
T = Trace of Precipitation, MM = Missing Value Source: NWS Daily Summary

Daily Weather History Graph

Daily Weather History Graph

Search for Another Location

Airport or City:

Trip Planner

Search our weather history database for the weather conditions in past years. The results will help you decide how hot, cold, wet, or windy it might be!

Date:

Astronomy

Sep. 14, 2012 Rise Set
Actual Time 6:55 AM CDT 7:21 PM CDT
Civil Twilight 6:29 AM CDT 7:48 PM CDT
Nautical Twilight 5:58 AM CDT 8:18 PM CDT
Astronomical Twilight 5:26 AM CDT 8:50 PM CDT
Moon 5:21 AM CDT (9/14) 6:18 PM CDT (9/14)
Length of Visible Light 13h 19m
Length of Day
12h 26m
Waning Crescent, 2% of the Moon is Illuminated
Sep 14
Waning Crescent
Sep 15
New
Sep 22
First Quarter
Sep 29
Full
Oct 8
Last Quarter

Hourly Weather History & Observations

Time (CDT) Temp. Dew Point Humidity Pressure Visibility Wind Dir Wind Speed Gust Speed Precip Events Conditions
12:52 AM 57.9 °F 53.1 °F 84% 30.25 in 10.0 mi NNE 10.4 mph - N/A   Scattered Clouds
1:02 AM 57.2 °F 53.6 °F 88% 30.27 in 10.0 mi NNE 11.5 mph - N/A   Mostly Cloudy
1:52 AM 59.0 °F 53.1 °F 81% 30.23 in 10.0 mi NNE 13.8 mph - N/A   Overcast
2:52 AM 57.9 °F 53.1 °F 84% 30.23 in 10.0 mi NNE 12.7 mph - 0.00 in   Overcast
3:52 AM 57.0 °F 52.0 °F 83% 30.23 in 10.0 mi NNE 12.7 mph - N/A   Overcast
4:52 AM 55.9 °F 52.0 °F 87% 30.24 in 10.0 mi NNE 13.8 mph - N/A   Overcast
5:27 AM 55.4 °F 51.8 °F 88% 30.26 in 10.0 mi NNE 12.7 mph - N/A   Overcast
5:52 AM 55.0 °F 52.0 °F 89% 30.25 in 10.0 mi North 11.5 mph - N/A   Overcast
6:52 AM 55.0 °F 50.0 °F 83% 30.26 in 10.0 mi NE 12.7 mph 21.9 mph N/A   Overcast
6:59 AM 55.4 °F 50.0 °F 82% 30.28 in 10.0 mi NE 13.8 mph - N/A   Overcast
7:52 AM 54.0 °F 51.1 °F 90% 30.29 in 10.0 mi NE 10.4 mph - 0.00 in Rain Light Rain
8:52 AM 55.0 °F 52.0 °F 89% 30.29 in 10.0 mi NE 11.5 mph - 0.02 in Rain Light Rain
9:52 AM 55.0 °F 53.1 °F 93% 30.30 in 10.0 mi NE 11.5 mph - 0.01 in Rain Light Rain
10:52 AM 57.0 °F 54.0 °F 89% 30.30 in 10.0 mi ENE 11.5 mph - 0.02 in Rain Light Rain
11:52 AM 57.9 °F 55.0 °F 90% 30.30 in 10.0 mi North - - 0.00 in Rain Light Rain
12:52 PM 57.9 °F 55.0 °F 90% 30.30 in 10.0 mi NE 13.8 mph - 0.01 in Rain Light Rain
1:52 PM 59.0 °F 55.4 °F 88% 30.29 in 10.0 mi ENE 10.4 mph - N/A Rain Light Rain
2:52 PM 60.1 °F 57.0 °F 90% 30.26 in 10.0 mi ENE 10.4 mph - 0.00 in Rain Light Rain
3:52 PM 60.1 °F 57.0 °F 90% 30.25 in 10.0 mi NE 9.2 mph - 0.00 in   Overcast
4:52 PM 60.1 °F 57.0 °F 90% 30.26 in 10.0 mi NE 11.5 mph - N/A   Overcast
5:52 PM 60.1 °F 57.0 °F 90% 30.26 in 10.0 mi NE 10.4 mph - N/A   Overcast
6:52 PM 59.0 °F 55.9 °F 90% 30.26 in 10.0 mi ENE 11.5 mph - N/A   Overcast
7:52 PM 59.0 °F 57.0 °F 93% 30.26 in 9.0 mi ENE 10.4 mph - 0.00 in   Overcast
8:52 PM 59.0 °F 57.0 °F 93% 30.27 in 9.0 mi ENE 8.1 mph - 0.00 in Rain Light Rain
9:39 PM 60.8 °F 57.2 °F 88% 30.27 in 9.0 mi ENE 9.2 mph - 0.00 in   Overcast
9:52 PM 60.1 °F 57.0 °F 90% 30.27 in 8.0 mi ENE 5.8 mph - 0.00 in   Overcast
10:52 PM 60.1 °F 57.0 °F 90% 30.27 in 9.0 mi East 5.8 mph - N/A   Overcast
11:52 PM 60.1 °F 57.0 °F 90% 30.26 in 8.0 mi East 3.5 mph - 0.01 in   Overcast